Wichita, KS

11:38 AM CDT on October 20, 2017 (GMT -0500)
Wichita Eisenhower National Airport

Weather History for KICT - March, 2012

Change the Weather History Date:

Friday, March 9, 2012

  Actual Average Record
Temperature  
Mean Temperature 45 °F 44 °F  
Max Temperature 61 °F 56 °F 81 °F (1986)
Min Temperature 28 °F 33 °F 3 °F (1996)
Degree Days  
Heating Degree Days 20 21  
Month to date heating degree days 138 198  
Since 1 July heating degree days 3361 3838  
Cooling Degree Days 0 0  
Month to date cooling degree days 0 0  
Year to date cooling degree days 0 0  
Moisture  
Dew Point 26 °F    
Average Humidity 51    
Maximum Humidity 78    
Minimum Humidity 23    
Precipitation  
Precipitation 0.00 in 0.08 in 0.98 in (1909)
Month to date precipitation 0.49 0.66  
Year to date precipitation 4.09 2.67  
Snow  
Snow 0.00 in 0.10 in 12.00 in (1909)
Month to date snowfall 0.4 0.8  
Since 1 July snowfall 3.0 13.2  
Snow Depth 0.00 in    
Sea Level Pressure  
Sea Level Pressure 30.51 in    
Wind  
Wind Speed 4 mph (West)    
Max Wind Speed 12 mph    
Max Gust Speed 14 mph    
Visibility 10 miles    
Events      
T = Trace of Precipitation, MM = Missing Value Source: NWS Daily Summary

Daily Weather History Graph

Daily Weather History Graph

Search for Another Location

Airport or City:

Trip Planner

Search our weather history database for the weather conditions in past years. The results will help you decide how hot, cold, wet, or windy it might be!

Date:

Astronomy

Mar. 09, 2012 Rise Set
Actual Time 6:48 AM CST 6:31 PM CST
Civil Twilight 6:22 AM CST 6:57 PM CST
Nautical Twilight 5:52 AM CST 7:28 PM CST
Astronomical Twilight 5:22 AM CST 7:58 PM CST
Moon 8:29 PM CST (3/9) 7:11 AM CST (3/9)
Length of Visible Light 12h 35m
Length of Day
11h 42m
Full, 97% of the Moon is Illuminated
Mar 9
Full
Mar 14
Last Quarter
Mar 22
New
Mar 30
First Quarter
Apr 6
Full

Hourly Weather History & Observations

Time (CST) Temp. Windchill Dew Point Humidity Pressure Visibility Wind Dir Wind Speed Gust Speed Precip Events Conditions
12:53 AM 33.1 °F 30.0 °F 26.1 °F 75% 30.58 in 10.0 mi WNW 3.5 mph - N/A   Scattered Clouds
1:53 AM 32.0 °F - 27.0 °F 82% 30.57 in 10.0 mi Calm Calm - N/A   Scattered Clouds
2:53 AM 33.1 °F - 26.1 °F 75% 30.55 in 10.0 mi Calm Calm - N/A   Scattered Clouds
3:53 AM 30.9 °F 27.5 °F 25.0 °F 79% 30.55 in 10.0 mi NW 3.5 mph - N/A   Partly Cloudy
4:53 AM 32.0 °F 25.6 °F 23.0 °F 69% 30.56 in 10.0 mi NNW 6.9 mph - N/A   Scattered Clouds
5:53 AM 30.9 °F 27.5 °F 21.9 °F 69% 30.57 in 10.0 mi NNW 3.5 mph - N/A   Scattered Clouds
6:53 AM 28.9 °F 22.8 °F 21.9 °F 75% 30.58 in 10.0 mi NNW 5.8 mph - N/A   Scattered Clouds
7:53 AM 35.1 °F 30.1 °F 26.1 °F 70% 30.59 in 10.0 mi NNW 5.8 mph - N/A   Scattered Clouds
8:53 AM 42.8 °F 41.1 °F 24.8 °F 49% 30.58 in 10.0 mi NW 3.5 mph - N/A   Clear
9:53 AM 48.0 °F - 26.1 °F 42% 30.60 in 10.0 mi NNW 6.9 mph - N/A   Partly Cloudy
10:53 AM 54.0 °F - 24.1 °F 31% 30.58 in 10.0 mi North 3.5 mph - N/A   Clear
11:53 AM 55.9 °F - 21.0 °F 26% 30.57 in 10.0 mi WNW 3.5 mph - N/A   Partly Cloudy
12:53 PM 59.0 °F - 21.9 °F 24% 30.55 in 10.0 mi Calm Calm - N/A   Clear
1:53 PM 59.0 °F - 21.0 °F 23% 30.51 in 10.0 mi Variable 3.5 mph - N/A   Clear
2:53 PM 60.1 °F - 23.0 °F 24% 30.48 in 10.0 mi SW 6.9 mph - N/A   Partly Cloudy
3:53 PM 60.1 °F - 24.1 °F 25% 30.47 in 10.0 mi SSW 9.2 mph - N/A   Partly Cloudy
4:53 PM 59.0 °F - 25.0 °F 27% 30.45 in 10.0 mi SSE 6.9 mph - N/A   Partly Cloudy
5:53 PM 57.0 °F - 28.0 °F 33% 30.43 in 10.0 mi South 5.8 mph - N/A   Partly Cloudy
6:53 PM 51.1 °F - 28.9 °F 43% 30.43 in 10.0 mi South 5.8 mph - N/A   Partly Cloudy
7:53 PM 48.9 °F - 30.0 °F 48% 30.43 in 10.0 mi South 5.8 mph - N/A   Clear
8:53 PM 43.0 °F 40.3 °F 30.0 °F 60% 30.43 in 10.0 mi South 4.6 mph - N/A   Clear
9:53 PM 41.0 °F 39.0 °F 30.9 °F 67% 30.43 in 10.0 mi SSW 3.5 mph - N/A   Clear
10:53 PM 39.0 °F 34.8 °F 28.9 °F 67% 30.43 in 10.0 mi South 5.8 mph - N/A   Clear
11:53 PM 41.0 °F 39.0 °F 28.9 °F 62% 30.42 in 10.0 mi SSE 3.5 mph - N/A   Clear